Location: *
(51.8167°N, 12.5000°E)
Time: 14:43:52
(UTC+00:00)

Cosmos 2263 Rocket - Pass Details

Date: 16 September 2019
Orbit: 824 x 848 km, 71.0° (Epoch: 21 October)

Event Time Altitude Azimuth Distance (km) Brightness Sun altitude
Exits shadow 23:39:53 32° 330° (NNW) 1,418 3.6 -35.2°
Drops below altitude 10° 23:44:20 10° 20° (NNE) 2,479 5.4 -35.1°
Sets 23:47:03 0° 30° (NNE) 3,415 6.3 -35.0°
